[[{"header":{"parameterUnit":"m.s-1","parameterCategory":1,"la1":30.2991,"la2":30.254,"lo1":-89.0895,"lo2":-89.0444,"dy":0.0017,"dx":0.0017,"nx":28,"ny":28,"refTime":"2025-11-25T09:00:00:Z","depth":0,"parameterNumber":2,"parameterNumberName":"U-component_of_WINDS"},"data":[0,0,0,0,0,0,0,0,0,0,0,0,0,0,0,0,0,0,0,0,0,0,0,0,0,0,0,0,0,0,0,0,0,0,0,0,0,0,0,0,0,0,0,0,0,0,0,0,0,0,0,0,0,0,0,0,0,0,2.7882,2.7882,0,2.7878,2.7878,2.7878,2.7836,2.7835,2.7834,2.7833,2.7828,2.7828,2.7829,0,0,0,0,0,0,0,0,0,0,0,0,0,2.7854,2.7854,2.7882,2.7882,2.7882,2.7878,2.7878,2.7878,2.7836,2.7835,2.7834,2.7833,2.7827,2.7828,2.7829,0,0,0,0,0,0,0,0,0,0,0,0,0,2.7859,2.7854,2.7882,2.7861,2.7859,2.7878,2.7878,2.7878,2.7837,2.7835,2.7833,2.7832,2.7827,2.7828,2.783,2.7869,0,0,2.7833,2.7834,0,0,0,0,0,0,0,0,2.7859,2.786,2.7864,2.7862,2.786,2.7856,2.7866,2.7875,2.7837,2.7845,2.7833,2.7831,2.7838,2.7839,2.7841,2.7868,2.7868,2.7833,2.7834,2.7835,2.7835,0,0,0,0,0,0,0,2.7859,2.786,2.788,2.7864,2.7862,2.7851,2.785,2.7867,2.785,2.7844,2.7841,2.7841,2.7837,2.784,2.7841,2.7868,2.7833,2.7835,2.7835,2.7836,2.7929,2.793,0,0,0,0,0,0,2.7861,2.786,2.7881,2.788,2.7856,2.7853,2.7852,2.7859,2.785,2.7847,2.7843,2.7839,2.7839,2.7839,2.784,2.7887,2.7835,2.7836,2.7837,2.7927,2.7929,2.7931,0,0,0,0,0,0,2.7861,2.7864,2.7881,2.787,2.7871,2.7855,2.7863,2.786,2.7863,2.7849,2.7846,2.7849,2.7838,2.7839,2.7862,2.7886,2.7836,2.7838,2.7925,2.7928,2.793,2.7979,0,0,0,0,0,0,2.786,2.7864,2.7878,2.787,2.7872,2.7903,2.7865,2.7861,2.7865,2.7861,2.7854,2.7851,2.7836,2.7861,2.7864,2.7887,2.7839,2.7923,2.7926,2.7929,2.7975,2.7983,2.7989,0,0,0,0,0,2.7859,2.7891,2.7879,2.7882,2.789,2.7904,2.7905,2.7887,2.7867,2.7882,2.7873,2.7852,2.7883,2.7864,2.7866,2.789,2.7921,2.7925,2.7929,2.7972,2.7981,2.7989,0,0,0,0,0,0,2.7901,2.789,2.7876,2.7906,2.7907,2.7897,2.7915,2.7898,2.7903,2.7899,2.7877,2.7875,2.7903,2.7899,2.7877,2.7928,2.7898,2.7903,2.793,2.7939,2.7946,2.7946,2.784,0,0,0,0,0,2.7914,2.7928,2.7917,2.7944,2.7946,2.7931,2.7936,2.7923,2.7922,2.7922,2.7915,2.7915,2.7924,2.7931,2.7939,2.7974,2.7973,2.7992,2.7999,2.8005,2.8009,2.8029,2.8038,2.7944,2.7944,2.7944,0,0,2.7941,2.7936,2.7946,2.7953,2.7951,2.7966,2.7931,2.7947,2.7957,2.7924,2.7946,2.7942,2.794,2.797,2.7982,2.7967,2.8035,2.801,2.8015,2.8016,2.8034,2.8043,2.805,2.7946,2.7946,2.7945,0,0,2.7997,2.7994,2.8018,2.8018,2.8017,2.8007,2.8013,2.8006,2.8002,2.8025,2.8,2.8012,2.8029,2.803,2.8032,2.8091,2.8071,2.8094,2.8131,2.815,2.8158,2.8164,2.8186,2.8194,2.8098,2.8098,2.8098,0,2.8029,2.805,2.8032,2.8051,2.8055,2.8027,2.8051,2.8051,2.8053,2.8057,2.804,2.8062,2.8058,2.8089,2.8103,2.8106,2.8112,2.8094,2.8158,2.8164,2.817,2.8191,2.8199,2.8101,2.8101,2.8101,2.81,0,2.8091,2.8106,2.8126,2.8129,2.8136,2.8157,2.8142,2.8151,2.8138,2.813,2.8154,2.8149,2.8157,2.8163,2.8149,2.8192,2.8182,2.8162,2.8132,2.8182,2.8201,2.8209,2.8105,2.8104,2.8103,2.8103,0,0,2.8171,2.8167,2.8174,2.8176,2.8174,2.8185,2.8206,2.8214,2.8222,2.8225,2.8242,2.8258,2.824,2.8243,2.8229,2.8246,2.8294,2.8224,2.8224,2.8238,2.8341,2.8357,2.8366,2.8281,2.8283,2.8284,2.8342,0,2.8226,2.8261,2.8246,2.8283,2.8297,2.8272,2.8289,2.829,2.8284,2.8295,2.8288,2.83,2.8275,2.8277,2.8292,2.8285,2.8315,2.8281,2.8297,2.8298,2.8298,2.8376,2.8391,2.8446,2.8349,2.835,2.8351,0,2.8293,2.83,2.8339,2.8336,2.8341,2.8358,2.8365,2.8376,2.8377,2.8371,2.8376,2.8359,2.8379,2.8349,2.8377,2.8354,2.836,2.8358,2.836,2.836,2.8327,2.8379,2.8463,2.8471,2.8362,2.8361,2.836,0,2.8349,2.8368,2.8394,2.8396,2.8393,2.8406,2.8405,2.8404,2.8411,2.8417,2.8422,2.843,2.8435,2.8442,2.8428,2.8407,2.8458,2.8427,2.8454,2.8454,2.8465,2.8465,2.8552,2.8469,2.8469,2.8469,2.8469,0,2.8411,2.8436,2.8419,2.8435,2.8462,2.8445,2.8473,2.8469,2.8469,2.8484,2.8462,2.8477,2.8458,2.847,2.8459,2.8485,2.8487,2.8483,2.848,2.8485,2.8485,2.8488,2.8484,2.8471,2.847,2.847,2.847,0,2.8477,2.8467,2.8494,2.849,2.849,2.851,2.8506,2.8521,2.8514,2.8533,2.8537,2.8526,2.854,2.8527,2.8539,2.8532,2.8566,2.8557,2.8566,2.8564,2.8592,2.859,2.8684,2.8696,2.8606,2.8606,2.8607,0,2.8517,2.8536,2.8535,2.8544,2.8545,2.856,2.8567,2.8552,2.856,2.8564,2.8578,2.859,2.8599,2.8623,2.8616,2.8626,2.8617,2.865,2.8618,2.8624,2.8618,2.8617,2.8619,2.8656,2.8657,2.8658,2.8658,0,2.859,2.8585,2.8596,2.8607,2.8617,2.8624,2.8629,2.8638,2.8622,2.8633,2.8648,2.8655,2.8669,2.8682,2.869,2.8689,2.8672,2.8669,2.8676,2.8681,2.8685,2.8684,2.8584,2.8666,2.8666,2.8665,2.8665,2.8664,2.8645,2.8661,2.8663,2.8677,2.868,2.8687,2.8701,2.8697,2.8709,2.872,2.871,2.8728,2.873,2.8739,2.8741,2.8754,2.8741,2.8751,2.8753,2.8756,2.876,2.8684,2.8756,2.8756,2.8755,2.8755,2.8755,0,2.8717,2.8718,2.8731,2.874,2.8752,2.8736,2.8742,2.8752,2.8769,2.8772,2.8782,2.88,2.8813,2.8807,2.8819,2.8831,2.8823,2.8834,2.8833,2.8833,2.8771,2.8765,2.884,2.884,2.884,2.884,2.884,2.884,2.8755,2.8782,2.8778,2.8806,2.8807,2.8825,2.883,2.8836,2.8839,2.886,2.8871,2.8868,2.8868,2.888,2.8891,2.8889,2.8894,2.8908,2.8904,2.8846,2.8837,2.8829,2.8823,2.891,2.891,2.8964,2.8965,2.8965]},{"header":{"parameterUnit":"m.s-1","parameterCategory":1,"la1":30.2991,"la2":30.254,"lo1":-89.0895,"lo2":-89.0444,"dy":0.0017,"dx":0.0017,"nx":28,"ny":28,"refTime":"2025-11-25T09:00:00:Z","depth":0,"parameterNumber":3,"parameterNumberName":"V-component_of_WINDS"},"data":[0,0,0,0,0,0,0,0,0,0,0,0,0,0,0,0,0,0,0,0,0,0,0,0,0,0,0,0,0,0,0,0,0,0,0,0,0,0,0,0,0,0,0,0,0,0,0,0,0,0,0,0,0,0,0,0,0,0,3.5125,3.5129,0,3.5495,3.55,3.5504,3.5604,3.5602,3.56,3.5598,3.5977,3.5989,3.6001,0,0,0,0,0,0,0,0,0,0,0,0,0,3.4503,3.4514,3.5124,3.5129,3.5134,3.5495,3.55,3.5505,3.5604,3.5602,3.5599,3.5597,3.5973,3.5988,3.6002,0,0,0,0,0,0,0,0,0,0,0,0,0,3.4813,3.4517,3.5124,3.5227,3.524,3.5494,3.55,3.5506,3.5605,3.5602,3.5598,3.5595,3.5969,3.5986,3.6004,3.6182,0,0,3.606,3.6068,0,0,0,0,0,0,0,0,3.4795,3.4836,3.5207,3.522,3.5235,3.55,3.542,3.5733,3.5606,3.5466,3.5597,3.5594,3.5821,3.5851,3.5928,3.62,3.6216,3.6062,3.6073,3.608,3.6086,0,0,0,0,0,0,0,3.4774,3.482,3.5271,3.5212,3.523,3.5255,3.5295,3.548,3.5658,3.5478,3.5486,3.5529,3.5828,3.591,3.5938,3.6222,3.6061,3.6077,3.6088,3.6096,3.6658,3.6662,0,0,0,0,0,0,3.4735,3.4802,3.526,3.5282,3.5003,3.5268,3.5314,3.5418,3.5656,3.5689,3.5531,3.5532,3.5881,3.5916,3.5951,3.6177,3.608,3.6097,3.6108,3.6654,3.6659,3.6663,0,0,0,0,0,0,3.4721,3.4774,3.5245,3.5045,3.5106,3.5283,3.5399,3.5427,3.551,3.5696,3.5728,3.5582,3.588,3.5926,3.6124,3.6191,3.6106,3.6122,3.6649,3.6656,3.6661,3.6627,0,0,0,0,0,0,3.4703,3.4769,3.4838,3.5045,3.5117,3.5411,3.5403,3.5437,3.5541,3.5545,3.5752,3.5784,3.5881,3.6096,3.6142,3.6215,3.6136,3.6644,3.6652,3.6659,3.6623,3.6631,3.6638,0,0,0,0,0,3.468,3.4814,3.4841,3.4896,3.5207,3.5415,3.5456,3.5564,3.5545,3.5617,3.5737,3.5777,3.6175,3.6116,3.6168,3.6247,3.6641,3.665,3.6659,3.6619,3.6629,3.6637,0,0,0,0,0,0,3.4611,3.4843,3.4876,3.5081,3.5227,3.5431,3.5525,3.5571,3.5726,3.5724,3.5852,3.5898,3.6088,3.6187,3.6116,3.6431,3.6408,3.6428,3.6361,3.6372,3.6379,3.6352,3.6151,0,0,0,0,0,3.4619,3.4768,3.4963,3.5125,3.5197,3.5347,3.5442,3.5513,3.567,3.5732,3.5867,3.6017,3.6177,3.6279,3.6436,3.6636,3.6683,3.6716,3.6723,3.6729,3.6745,3.686,3.6877,3.6693,3.6693,3.6693,0,0,3.4639,3.4784,3.487,3.5115,3.5237,3.5388,3.5399,3.5559,3.5674,3.5757,3.5953,3.6056,3.6232,3.6433,3.6528,3.6521,3.6806,3.674,3.6743,3.6758,3.6871,3.6888,3.6903,3.6699,3.6698,3.6697,0,0,3.4752,3.4876,3.5026,3.5147,3.5331,3.543,3.5465,3.5663,3.5735,3.5933,3.5999,3.6135,3.6407,3.6531,3.6629,3.6786,3.683,3.6833,3.6874,3.6984,3.6998,3.7012,3.707,3.7089,3.6849,3.6849,3.6849,0,3.4754,3.4985,3.5096,3.5254,3.536,3.5441,3.5593,3.5705,3.5931,3.6002,3.5991,3.6333,3.6458,3.6688,3.6727,3.6803,3.6848,3.6812,3.6987,3.7002,3.7016,3.7073,3.7095,3.6848,3.6848,3.6848,3.6848,0,3.4979,3.5138,3.5236,3.5452,3.5569,3.5722,3.5857,3.5961,3.602,3.6121,3.6321,3.6473,3.6662,3.6721,3.6781,3.6961,3.6951,3.6962,3.6942,3.7031,3.7087,3.711,3.6847,3.6848,3.6848,3.6848,0,0,3.5063,3.5336,3.5371,3.547,3.5678,3.5803,3.596,3.6145,3.6233,3.6384,3.652,3.6746,3.6758,3.6869,3.6943,3.7039,3.7156,3.7038,3.7044,3.7057,3.7365,3.7357,3.7381,3.7184,3.7189,3.7192,3.735,0,3.5204,3.5489,3.5592,3.5826,3.5975,3.6053,3.619,3.6332,3.6429,3.6569,3.6676,3.6836,3.6837,3.6905,3.7003,3.7121,3.722,3.711,3.7313,3.7319,3.727,3.741,3.7403,3.7545,3.7373,3.7376,3.7379,0,3.5409,3.5563,3.5811,3.6001,3.6067,3.6188,3.6366,3.6499,3.6661,3.6725,3.6848,3.6915,3.7082,3.7049,3.7281,3.7204,3.7292,3.7362,3.7371,3.7397,3.7357,3.7442,3.7593,3.7615,3.7414,3.7411,3.7409,0,3.5447,3.5717,3.5901,3.5983,3.6208,3.6291,3.6389,3.6548,3.6652,3.6807,3.6876,3.7047,3.7142,3.7273,3.7384,3.7349,3.7607,3.7582,3.7666,3.7663,3.772,3.7715,3.789,3.7771,3.777,3.777,3.7769,0,3.5597,3.5746,3.5922,3.6035,3.6205,3.6321,3.6486,3.6588,3.6729,3.6863,3.6939,3.7064,3.7202,3.7345,3.7433,3.7612,3.7654,3.7711,3.7733,3.7706,3.7699,3.7768,3.7762,3.7776,3.7774,3.7773,3.7772,0,3.5671,3.5794,3.6,3.6195,3.6248,3.6364,3.6532,3.6645,3.6743,3.6913,3.6959,3.7115,3.7286,3.741,3.763,3.7689,3.7883,3.7904,3.7829,3.7841,3.7918,3.791,3.8146,3.8183,3.8035,3.8037,3.8038,0,3.576,3.5877,3.6084,3.618,3.6277,3.643,3.6537,3.6655,3.6763,3.6956,3.7045,3.7222,3.737,3.764,3.7773,3.7942,3.7969,3.804,3.7995,3.7964,3.7973,3.7966,3.7979,3.8047,3.8048,3.8049,3.805,0,3.5905,3.596,3.6111,3.6283,3.6408,3.655,3.6692,3.6766,3.6909,3.7026,3.7203,3.7317,3.7542,3.7717,3.7899,3.7999,3.8049,3.8062,3.8091,3.8066,3.8019,3.8048,3.785,3.8057,3.8056,3.8056,3.8055,3.8055,3.5992,3.6099,3.6262,3.6428,3.6547,3.6678,3.6794,3.6907,3.7056,3.7249,3.7309,3.7492,3.765,3.79,3.8002,3.8146,3.8144,3.8185,3.8196,3.8205,3.8205,3.7992,3.818,3.8179,3.8179,3.8179,3.8179,0,3.6143,3.6251,3.6402,3.6599,3.6729,3.6763,3.6922,3.7028,3.7188,3.7332,3.7475,3.7678,3.7847,3.7992,3.8167,3.8255,3.8282,3.8297,3.8294,3.8317,3.8196,3.8155,3.8273,3.8272,3.8272,3.8272,3.8272,3.8272,3.6237,3.6422,3.6496,3.674,3.6847,3.7027,3.7115,3.7236,3.7352,3.7574,3.7715,3.7808,3.7953,3.8139,3.8296,3.8334,3.8396,3.8406,3.845,3.8336,3.8325,3.8314,3.8277,3.8418,3.8418,3.8559,3.856,3.8561]}]]